Flag for Saudi Arabia Weather past 2 weeks in Riyadh, Saudi Arabia

Now
100 °F

Clear.


Feels Like: 95 °F
Forecast: 94 / 112 °F
Wind: 8 mph from North

Location: King Khaled International Airport

Current Time: Jul 4, 2015 at 10:07:30 PM

Latest Report: Jul 4, 2015 at 9:00 PM


Visibility: 10 mi

Pressure: 29.77 "Hg (27.90 "Hg at 590m altitude)

Humidity: 7%

Dew point: 25 °F

Location of RiyadhLocation

Historic Weather in Riyadh — Graph

°F

Riyadh temperature yesterday

Maximum temperature yesterday: 111 °F (at 3:00 PM)
Minimum temperature yesterday: 84 °F (at 5:00 AM)
Average temperature yesterday: 97 °F

Past Weeks' High & Low Weather Summary

 TemperatureHumidityPressure
High113 °F (Jul 4, 3:00 PM)19% (Jun 23, 6:00 AM)29.92 "Hg (Jun 23, 6:00 AM)
Low75 °F (Jun 29, 6:00 AM)4% (Jul 3, 1:00 PM)29.68 "Hg (Jun 20, 3:00 PM)
Average95 °F10%29.77 "Hg
* Reported Jun 19 9:00 PM — Jul 4 9:00 PM, Riyadh, Weather by CustomWeather, © 2015

Note: Actual official high and low records may vary slightly from our data, if they occured in-between our weather recording intervals... More about our weather records

Advertising

Riyadh weather history for previous 24 hours

 ConditionsComfort  
Time TempWeatherWind HumidityBarometerVisibility
9:00 PM
Sat, Jul 4
100 °FClear.8 mph7%29.77 "Hg10 mi
8:00 PM104 °FClear.7 mph6%29.77 "Hg10 mi
7:00 PM106 °FClear.7 mph6%29.74 "Hg5 mi
6:00 PM109 °FClear.10 mph5%29.74 "Hg5 mi
5:00 PM111 °FSunny.9 mph5%29.71 "Hg4 mi
4:00 PM113 °FSunny.7 mph5%29.74 "Hg5 mi
3:00 PM113 °FSunny.6 mph5%29.74 "Hg6 mi
2:00 PM111 °FSunny.6 mph5%29.74 "Hg10 mi
1:00 PM111 °FSunny.9 mph5%29.77 "Hg10 mi
12:00 PM109 °FSunny.8 mph5%29.77 "Hg10 mi
11:00 AM106 °FSunny.13 mph6%29.80 "Hg10 mi
10:00 AM106 °FSunny.12 mph7%29.80 "Hg10 mi
9:00 AM100 °FSunny.14 mph7%29.80 "Hg10 mi
8:00 AM95 °FSunny.10 mph8%29.80 "Hg10 mi
7:00 AM90 °FSunny.8 mph9%29.80 "Hg10 mi
6:00 AM84 °FSunny.9 mph10%29.77 "Hg10 mi
5:00 AM84 °FClear.7 mph10%29.77 "Hg10 mi
4:00 AM86 °FClear.9 mph8%29.77 "Hg10 mi
3:00 AM88 °FClear.9 mph9%29.77 "Hg10 mi
2:00 AM86 °FClear.9 mph9%29.77 "Hg10 mi
1:00 AM88 °FClear.7 mph9%29.77 "Hg10 mi
12:00 AM91 °FClear.9 mph8%29.80 "Hg10 mi
11:00 PM
Fri, Jul 3
93 °FClear.8 mph7%29.80 "Hg10 mi
10:00 PM95 °FClear.7 mph8%29.80 "Hg10 mi
Weather by CustomWeather, © 2015

See weather overviewHow to use our weather pages